Daviess Cnty AP, Washington,, IN

2:50 AM EST on December 10, 2019 (GMT -0500)
Daviess County

Weather History for KDCY - October, 2019

Change the Weather History Date:

Wednesday, October 30, 2019

  Actual Average (KLWV) Record (KLWV)
Temperature  
Mean Temperature 50 °F -  
Max Temperature 55 °F 60 °F 79 °F (2004)
Min Temperature 46 °F 40 °F 30 °F (2005)
Degree Days  
Heating Degree Days 14    
Moisture  
Dew Point 50 °F    
Average Humidity 99    
Maximum Humidity 100    
Minimum Humidity 97    
Precipitation  
Precipitation 0.10 in - - ()
Sea Level Pressure  
Sea Level Pressure 30.03 in    
Wind  
Wind Speed 7 mph (NNE)    
Max Wind Speed 12 mph    
Max Gust Speed -    
Visibility 6 miles    
Events Rain    
Averages and records for this station are not official NWS values.
T = Trace of Precipitation, MM = Missing Value Source: NWS Daily Summary

Daily Weather History Graph

Daily Weather History Graph

Search for Another Location

Airport or City:

Astronomy

Oct. 30, 2019 Rise Set
Actual Time 8:12 AM EDT 6:50 PM EDT
Civil Twilight 7:45 AM EDT 7:18 PM EDT
Nautical Twilight 7:14 AM EDT 7:49 PM EDT
Astronomical Twilight 6:43 AM EDT 8:20 PM EDT
Moon 10:54 AM EDT (10/30) 8:59 PM EDT (10/30)
Length of Visible Light 11h 32m
Length of Day
10h 37m
Waxing Crescent, 8% of the Moon is Illuminated
Oct 30
Waxing Crescent
Nov 4
First Quarter
Nov 12
Full
Nov 19
Last Quarter
Nov 26
New

Hourly Weather History & Observations

Time (EDT) Temp. Dew Point Humidity Pressure Visibility Wind Dir Wind Speed Gust Speed Precip Events Conditions
12:15 AM 48.2 °F 47.8 °F 99% 30.19 in 10.0 mi North 6.9 mph - N/A   Overcast
12:35 AM 48.2 °F 47.7 °F 98% 30.19 in 10.0 mi North 4.6 mph - N/A   Overcast
12:55 AM 48.2 °F 47.7 °F 98% 30.19 in 10.0 mi North 8.1 mph - N/A   Overcast
1:15 AM 48.2 °F 47.8 °F 99% 30.19 in 10.0 mi North 6.9 mph - N/A   Overcast
1:35 AM 48.2 °F 47.5 °F 97% 30.18 in 10.0 mi NNE 8.1 mph - N/A   Overcast
1:55 AM 48.2 °F 47.7 °F 98% 30.18 in 10.0 mi NNE 5.8 mph - N/A   Overcast
2:15 AM 48.2 °F 47.5 °F 97% 30.17 in 10.0 mi North 10.4 mph - N/A   Overcast
2:35 AM 47.5 °F 47.1 °F 99% 30.17 in 10.0 mi North 8.1 mph - N/A   Overcast
2:55 AM 47.3 °F 46.9 °F 99% 30.17 in 10.0 mi North 9.2 mph - N/A   Overcast
3:15 AM 47.1 °F 46.8 °F 99% 30.18 in 10.0 mi North 9.2 mph - N/A   Overcast
3:35 AM 46.9 °F 46.8 °F 99% 30.16 in 10.0 mi North 10.4 mph - N/A   Overcast
3:55 AM 46.9 °F 46.8 °F 99% 30.16 in 7.0 mi North 10.4 mph - N/A   Overcast
4:15 AM 46.9 °F 46.8 °F 99% 30.15 in 7.0 mi NNE 8.1 mph - N/A   Overcast
4:35 AM 46.9 °F 46.8 °F 99% 30.15 in 7.0 mi NNE 9.2 mph - N/A   Overcast
4:55 AM 47.1 °F 46.8 °F 99% 30.15 in 7.0 mi NNE 8.1 mph - N/A   Overcast
5:15 AM 47.3 °F 47.3 °F 100% 30.13 in 7.0 mi NE 8.1 mph - N/A Rain Light Rain
5:35 AM 47.5 °F 47.3 °F 99% 30.12 in 7.0 mi NE 6.9 mph - N/A Rain Light Rain
5:55 AM 47.8 °F 47.7 °F 99% 30.13 in 7.0 mi East 6.9 mph - N/A   Light Drizzle
6:15 AM 48.2 °F 48.0 °F 99% 30.12 in 7.0 mi East 9.2 mph - N/A   Light Drizzle
6:35 AM 49.1 °F 48.7 °F 99% 30.10 in 7.0 mi East 9.2 mph - N/A   Overcast
6:55 AM 49.3 °F 49.1 °F 99% 30.10 in 10.0 mi ENE 5.8 mph - N/A   Overcast
7:15 AM 49.3 °F 49.1 °F 99% 30.11 in 10.0 mi North 5.8 mph - N/A   Overcast
7:35 AM 49.1 °F 48.7 °F 99% 30.10 in 7.0 mi North 4.6 mph - N/A   Overcast
7:55 AM 48.6 °F 48.4 °F 99% 30.10 in 7.0 mi North 5.8 mph - N/A   Light Drizzle
8:15 AM 48.6 °F 48.4 °F 99% 30.08 in 7.0 mi NE 8.1 mph - N/A Rain Light Rain
8:35 AM 48.7 °F 48.6 °F 99% 30.07 in 7.0 mi NE 8.1 mph - N/A   Overcast
8:55 AM 49.1 °F 48.7 °F 99% 30.07 in 7.0 mi ENE 4.6 mph - N/A Rain Rain
9:15 AM 49.5 °F 49.3 °F 99% 30.06 in 4.0 mi NE 5.8 mph - N/A Rain Rain
9:35 AM 50.0 °F 49.8 °F 99% 30.06 in 5.0 mi ENE 5.8 mph - N/A   Overcast
9:55 AM 50.2 °F 50.0 °F 99% 30.06 in 5.0 mi ENE 3.5 mph - N/A   Overcast
10:15 AM 50.5 °F 50.4 °F 99% 30.06 in 5.0 mi East 4.6 mph - N/A   Overcast
10:35 AM 51.4 °F 51.3 °F 99% 30.05 in 5.0 mi ENE 4.6 mph - N/A   Overcast
10:55 AM 52.0 °F 51.8 °F 99% 30.04 in 7.0 mi ENE 5.8 mph - N/A   Overcast
11:15 AM 52.2 °F 52.0 °F 99% 30.03 in 7.0 mi ENE 5.8 mph - N/A Rain Rain
11:35 AM 52.7 °F 52.2 °F 98% 30.03 in 7.0 mi ENE 4.6 mph - 0.01 in   Drizzle
11:55 AM 52.7 °F 52.3 °F 99% 30.03 in 7.0 mi NNE 3.5 mph - 0.01 in   Drizzle
12:15 PM 52.9 °F 52.7 °F 99% 30.03 in 7.0 mi North 4.6 mph - 0.01 in Rain Rain
12:35 PM 53.1 °F 52.9 °F 99% 30.03 in 7.0 mi ENE 3.5 mph - 0.01 in Rain Rain
12:55 PM 53.1 °F 52.9 °F 99% 30.01 in 5.0 mi North 4.6 mph - 0.02 in Rain Light Rain
1:15 PM 53.1 °F 52.9 °F 99% 30.00 in 7.0 mi North 6.9 mph - 0.01 in Rain Light Rain
1:35 PM 52.5 °F 52.2 °F 99% 29.99 in 4.0 mi NNW 10.4 mph - 0.03 in Rain Light Rain
1:55 PM 52.2 °F 52.0 °F 99% 29.98 in 4.0 mi NNW 8.1 mph - 0.04 in   Drizzle
2:15 PM 51.8 °F 51.8 °F 100% 29.96 in 4.0 mi North 9.2 mph - N/A   Drizzle
2:35 PM 51.4 °F 51.3 °F 99% 29.95 in 5.0 mi North 11.5 mph - 0.01 in Rain Light Rain
2:55 PM 51.8 °F 51.6 °F 99% 29.95 in 5.0 mi North 10.4 mph - 0.01 in   Drizzle
3:15 PM 52.3 °F 52.0 °F 99% 29.93 in 7.0 mi NNE 5.8 mph - 0.01 in Rain Light Rain
3:35 PM 53.4 °F 53.1 °F 99% 29.90 in 7.0 mi NNE 6.9 mph - 0.01 in Rain Light Rain
3:55 PM 54.0 °F 53.6 °F 99% 29.90 in 10.0 mi ENE 5.8 mph - 0.01 in   Overcast
4:15 PM 54.9 °F 54.5 °F 99% 29.91 in 10.0 mi SE 3.5 mph - N/A   Overcast
4:35 PM 55.6 °F 55.4 °F 99% 29.90 in 10.0 mi NE 3.5 mph - N/A   Overcast
5:15 PM 54.5 °F 54.5 °F 100% 29.92 in 10.0 mi NNW 5.8 mph - N/A   Overcast
5:35 PM 53.6 °F 53.2 °F 99% 29.92 in 10.0 mi NW 8.1 mph - N/A   Overcast
5:55 PM 52.9 °F 52.7 °F 99% 29.91 in 2.0 mi NNW 6.9 mph - N/A   Overcast
6:15 PM 52.7 °F 52.3 °F 99% 29.91 in 1.2 mi NNW 5.8 mph - N/A   Drizzle
6:35 PM 52.0 °F 51.8 °F 99% 29.91 in 1.8 mi North 3.5 mph - N/A   Light Drizzle
6:55 PM 51.8 °F 51.8 °F 100% 29.91 in 3.0 mi Calm Calm - 0.01 in   Overcast
7:15 PM 51.8 °F 51.4 °F 99% 29.92 in 5.0 mi NNW 4.6 mph - N/A   Overcast
7:35 PM 51.8 °F 51.6 °F 99% 29.92 in 5.0 mi NNW 6.9 mph - N/A   Overcast
7:55 PM 51.4 °F 51.3 °F 99% 29.91 in 7.0 mi NNW 5.8 mph - N/A   Overcast
8:15 PM 51.4 °F 51.1 °F 99% 29.91 in 7.0 mi NW 4.6 mph - N/A   Overcast
8:35 PM 51.3 °F 50.9 °F 99% 29.91 in 7.0 mi NNW 6.9 mph - N/A   Overcast
8:55 PM 50.9 °F 50.9 °F 100% 29.90 in 5.0 mi NNW 5.8 mph - N/A   Overcast
9:15 PM 51.1 °F 50.9 °F 99% 29.91 in 3.0 mi WNW 6.9 mph - N/A   Overcast
9:55 PM 50.5 °F 50.4 °F 99% 29.90 in 1.0 mi NW 8.1 mph - N/A   Overcast
10:15 PM 50.2 °F 50.0 °F 99% 29.90 in 1.0 mi NNW 6.9 mph - N/A   Overcast
10:35 PM 50.0 °F 49.6 °F 99% 29.90 in 1.2 mi NNW 8.1 mph - N/A   Light Drizzle
10:55 PM 49.3 °F 49.1 °F 99% 29.90 in 1.5 mi NNW 9.2 mph - N/A   Overcast
11:15 PM 49.1 °F 48.9 °F 99% 29.90 in 1.0 mi NNW 6.9 mph - N/A   Overcast
11:35 PM 48.9 °F 48.7 °F 99% 29.87 in 0.8 mi North 5.8 mph - N/A   Overcast
11:55 PM 48.7 °F 48.6 °F 99% 29.87 in 1.0 mi Calm Calm - N/A   Overcast